• Em Portugal
  • Lista de países
  • Para 7 dias
  • Temperatura da água
  • Mapas de satélite
  • Mapa do tempo
  • Widgets de tempo
  • user-avatar
    Iniciar Sessão

    Previsão horária em Dvor-Cheresovo

    Hoje, 19 Julho, Quinta-feira

    Tempo Temperatura Precipitação Vento Pressão Humidade
    00:00 +18°C° 0 mm 3 m/s 741 mmHg 95%
    01:00 +18°C° 0 mm 3 m/s 741 mmHg 96%
    02:00 +17°C° 0 mm 2 m/s 741 mmHg 97%
    03:00 +17°C° 0 mm 2 m/s 741 mmHg 97%
    04:00 +17°C° 0 mm 2 m/s 741 mmHg 97%
    05:00 +17°C° 0 mm 2 m/s 741 mmHg 98%
    06:00 +18°C° 0 mm 2 m/s 741 mmHg 96%
    07:00 +19°C° 0 mm 3 m/s 741 mmHg 94%
    08:00 +20°C° 0 mm 3 m/s 741 mmHg 92%
    09:00 +20°C° 0,7 mm 3 m/s 741 mmHg 92%
    10:00 +21°C° 0,7 mm 3 m/s 741 mmHg 91%
    11:00 +21°C° 0,7 mm 3 m/s 741 mmHg 91%
    12:00 +21°C° 1,4 mm 3 m/s 741 mmHg 90%
    13:00 +22°C° 1,4 mm 3 m/s 741 mmHg 90%
    14:00 +22°C° 1,4 mm 3 m/s 741 mmHg 90%
    15:00 +22°C° 1,1 mm 3 m/s 741 mmHg 89%
    16:00 +24°C° 1,1 mm 3 m/s 741 mmHg 88%
    17:00 +24°C° 1,1 mm 3 m/s 741 mmHg 87%
    18:00 +22°C° 0,6 mm 3 m/s 741 mmHg 88%
    19:00 +23°C° 0,6 mm 2 m/s 740 mmHg 90%
    20:00 +21°C° 0,6 mm 2 m/s 740 mmHg 92%
    21:00 +20°C° 0 mm 2 m/s 740 mmHg 93%
    22:00 +20°C° 0 mm 2 m/s 741 mmHg 94%
    23:00 +19°C° 0 mm 2 m/s 741 mmHg 96%

    Amanhã, 20 Julho, Sexta-feira

    Tempo Temperatura Precipitação Vento Pressão Humidade
    00:00 +19°C° 0 mm 2 m/s 741 mmHg 97%
    01:00 +18°C° 0 mm 2 m/s 741 mmHg 97%
    02:00 +18°C° 0 mm 2 m/s 741 mmHg 98%
    03:00 +18°C° 0 mm 2 m/s 741 mmHg 98%
    04:00 +18°C° 0 mm 2 m/s 741 mmHg 98%
    05:00 +18°C° 0 mm 2 m/s 741 mmHg 99%
    06:00 +19°C° 0 mm 2 m/s 741 mmHg 97%
    07:00 +20°C° 0 mm 2 m/s 741 mmHg 94%
    08:00 +21°C° 0 mm 3 m/s 741 mmHg 92%
    09:00 +21°C° 0,1 mm 3 m/s 741 mmHg 89%
    10:00 +22°C° 0,1 mm 3 m/s 741 mmHg 86%
    11:00 +22°C° 0,1 mm 3 m/s 741 mmHg 83%
    12:00 +24°C° 0,1 mm 3 m/s 741 mmHg 79%
    13:00 +25°C° 0,1 mm 3 m/s 741 mmHg 74%
    14:00 +27°C° 0,1 mm 3 m/s 740 mmHg 69%
    15:00 +27°C° 0,2 mm 3 m/s 740 mmHg 70%
    16:00 +27°C° 0,2 mm 3 m/s 740 mmHg 71%
    17:00 +27°C° 0,2 mm 3 m/s 740 mmHg 72%
    18:00 +25°C° 0,1 mm 2 m/s 740 mmHg 77%
    19:00 +24°C° 0,1 mm 2 m/s 740 mmHg 82%
    20:00 +23°C° 0,1 mm 2 m/s 740 mmHg 87%
    21:00 +21°C° 0 mm 2 m/s 740 mmHg 89%
    22:00 +20°C° 0 mm 2 m/s 740 mmHg 91%
    23:00 +21°C° 0 mm 1 m/s 740 mmHg 94%

    Depois de amanhã, 21 Julho, Sábado

    Tempo Temperatura Precipitação Vento Pressão Humidade
    00:00 +20°C° 0 mm 1 m/s 740 mmHg 94%
    01:00 +20°C° 0 mm 1 m/s 740 mmHg 95%
    02:00 +20°C° 0 mm 1 m/s 740 mmHg 96%
    03:00 +20°C° 0 mm 1 m/s 741 mmHg 96%
    04:00 +20°C° 0 mm 1 m/s 741 mmHg 96%
    05:00 +19°C° 0 mm 2 m/s 741 mmHg 97%
    06:00 +20°C° 0 mm 2 m/s 741 mmHg 92%
    07:00 +23°C° 0 mm 2 m/s 741 mmHg 87%
    08:00 +24°C° 0 mm 2 m/s 741 mmHg 83%
    09:00 +25°C° 1,1 mm 2 m/s 741 mmHg 82%
    10:00 +25°C° 1,1 mm 2 m/s 741 mmHg 81%
    11:00 +26°C° 1,1 mm 2 m/s 741 mmHg 80%
    12:00 +26°C° 1,2 mm 2 m/s 741 mmHg 81%
    13:00 +26°C° 1,2 mm 3 m/s 741 mmHg 82%
    14:00 +26°C° 1,2 mm 3 m/s 741 mmHg 82%
    15:00 +25°C° 1 mm 3 m/s 741 mmHg 85%
    16:00 +25°C° 1 mm 2 m/s 741 mmHg 87%
    17:00 +24°C° 1 mm 2 m/s 741 mmHg 90%
    18:00 +24°C° 0,4 mm 2 m/s 741 mmHg 91%
    19:00 +23°C° 0,4 mm 2 m/s 741 mmHg 93%
    20:00 +21°C° 0,4 mm 2 m/s 741 mmHg 94%
    21:00 +21°C° 0,4 mm 2 m/s 741 mmHg 95%
    22:00 +20°C° 0,4 mm 2 m/s 741 mmHg 96%
    23:00 +20°C° 0,4 mm 2 m/s 741 mmHg 97%

    22 Julho, Domingo

    Tempo Temperatura Precipitação Vento Pressão Humidade
    00:00 +20°C° 0,5 mm 2 m/s 741 mmHg 97%
    01:00 +20°C° 0,5 mm 2 m/s 741 mmHg 97%
    02:00 +19°C° 0,5 mm 3 m/s 741 mmHg 97%
    03:00 +19°C° 1,1 mm 3 m/s 741 mmHg 97%
    04:00 +19°C° 1,1 mm 3 m/s 741 mmHg 97%
    05:00 +19°C° 1,1 mm 3 m/s 741 mmHg 97%
    06:00 +19°C° 1,1 mm 3 m/s 741 mmHg 97%
    07:00 +19°C° 1,1 mm 3 m/s 741 mmHg 96%
    08:00 +19°C° 1,1 mm 3 m/s 741 mmHg 96%
    09:00 +20°C° 0,9 mm 3 m/s 741 mmHg 95%
    10:00 +20°C° 0,9 mm 4 m/s 741 mmHg 94%
    11:00 +21°C° 0,9 mm 4 m/s 741 mmHg 93%
    12:00 +21°C° 0,7 mm 4 m/s 741 mmHg 92%
    13:00 +22°C° 0,7 mm 4 m/s 741 mmHg 90%
    14:00 +22°C° 0,7 mm 4 m/s 741 mmHg 89%
    15:00 +22°C° 0,4 mm 4 m/s 741 mmHg 88%
    16:00 +22°C° 0,4 mm 4 m/s 741 mmHg 87%
    17:00 +22°C° 0,4 mm 4 m/s 741 mmHg 86%
    18:00 +22°C° 0 mm 3 m/s 741 mmHg 88%
    19:00 +21°C° 0 mm 3 m/s 741 mmHg 90%
    20:00 +21°C° 0 mm 2 m/s 741 mmHg 92%
    21:00 +20°C° 0,1 mm 3 m/s 741 mmHg 93%
    22:00 +19°C° 0,1 mm 3 m/s 741 mmHg 95%
    23:00 +19°C° 0,1 mm 3 m/s 741 mmHg 96%

    23 Julho, Segunda-feira

    Tempo Temperatura Precipitação Vento Pressão Humidade
    00:00 +18°C° 0 mm 3 m/s 741 mmHg 96%
    01:00 +18°C° 0 mm 3 m/s 741 mmHg 97%
    02:00 +18°C° 0 mm 3 m/s 741 mmHg 97%
    03:00 +18°C° 0 mm 3 m/s 741 mmHg 97%
    04:00 +18°C° 0 mm 3 m/s 741 mmHg 97%
    05:00 +19°C° 0 mm 4 m/s 742 mmHg 97%
    06:00 +19°C° 0,1 mm 4 m/s 742 mmHg 95%
    07:00 +19°C° 0,1 mm 4 m/s 742 mmHg 93%
    08:00 +20°C° 0,1 mm 4 m/s 742 mmHg 91%
    09:00 +21°C° 0 mm 4 m/s 742 mmHg 85%
    10:00 +22°C° 0 mm 4 m/s 742 mmHg 79%
    11:00 +23°C° 0 mm 4 m/s 743 mmHg 74%
    12:00 +23°C° 0 mm 4 m/s 743 mmHg 71%
    13:00 +25°C° 0 mm 5 m/s 742 mmHg 68%
    14:00 +26°C° 0 mm 5 m/s 742 mmHg 65%
    15:00 +26°C° 0 mm 4 m/s 743 mmHg 66%
    16:00 +25°C° 0 mm 4 m/s 743 mmHg 68%
    17:00 +25°C° 0 mm 3 m/s 743 mmHg 70%
    18:00 +24°C° 0 mm 3 m/s 743 mmHg 74%
    19:00 +22°C° 0 mm 3 m/s 743 mmHg 77%
    20:00 +21°C° 0 mm 2 m/s 743 mmHg 81%
    21:00 +20°C° 0 mm 2 m/s 743 mmHg 83%
    22:00 +20°C° 0 mm 2 m/s 743 mmHg 85%
    23:00 +19°C° 0 mm 2 m/s 743 mmHg 87%

    24 Julho, Terça-feira

    Tempo Temperatura Precipitação Vento Pressão Humidade
    00:00 +19°C° 0 mm 2 m/s 743 mmHg 87%
    01:00 +19°C° 0 mm 3 m/s 743 mmHg 87%
    02:00 +19°C° 0 mm 3 m/s 743 mmHg 87%
    03:00 +18°C° 0 mm 3 m/s 743 mmHg 87%
    04:00 +18°C° 0 mm 3 m/s 743 mmHg 87%
    05:00 +18°C° 0 mm 3 m/s 743 mmHg 87%
    06:00 +19°C° 0,1 mm 3 m/s 744 mmHg 86%
    07:00 +19°C° 0,1 mm 3 m/s 744 mmHg 85%
    08:00 +20°C° 0,1 mm 3 m/s 744 mmHg 84%
    09:00 +21°C° 0 mm 4 m/s 744 mmHg 79%
    10:00 +22°C° 0 mm 4 m/s 745 mmHg 74%
    11:00 +23°C° 0 mm 4 m/s 745 mmHg 69%
    12:00 +25°C° 0 mm 4 m/s 745 mmHg 66%
    13:00 +26°C° 0 mm 4 m/s 745 mmHg 63%
    14:00 +26°C° 0 mm 4 m/s 745 mmHg 60%
    15:00 +26°C° 0 mm 4 m/s 745 mmHg 62%
    16:00 +26°C° 0 mm 3 m/s 745 mmHg 63%
    17:00 +26°C° 0 mm 3 m/s 745 mmHg 65%
    18:00 +25°C° 0 mm 3 m/s 745 mmHg 70%
    19:00 +24°C° 0 mm 2 m/s 745 mmHg 75%
    20:00 +21°C° 0 mm 2 m/s 745 mmHg 80%
    21:00 +21°C° 0 mm 1 m/s 746 mmHg 83%
    22:00 +20°C° 0 mm 1 m/s 746 mmHg 85%
    23:00 +20°C° 0 mm 1 m/s 746 mmHg 88%
    Mostrar mais